Find STARLINK-37513

NORAD ID: 799500907 Int'l Des: 2026-127P Constellation: starlink operational

Current View

Loading 3D Globe...

About STARLINK-37513

Description loading...

Upcoming Passes

Passes for default location (London). Set your location on the main map for personalized predictions.

Altitude History

Loading altitude history...

Two-Line Element Set

1 99999C 2026127P 26159.93034721 .00918330 00000-0 942170-4 0 1596
2 99999 53.1615 304.8014 0008783 292.0885 127.0141 16.09456258 11
Epoch: Jun 8, 2026 • Age: 2 hours